| time (UTC) | temp C | wind direction | speed KPH | gust KPH | rain 1hr cm | rain 24hr cm | rain mn cm | humidity % | barometer mb |
| 20260505140238 | 9 | 292 | 0.0 | 0.0 | 0.00 | 0.03 | 0.00 | 15 | 1013.8 |
| 20260505130237 | 9 | 301 | 0.0 | 0.0 | 0.00 | 0.03 | 0.00 | 15 | 1013.6 |
| 20260505124737 | 9 | 301 | 0.0 | 0.0 | 0.00 | 0.03 | 0.00 | 15 | 1013.7 |
| 20260505124237 | 9 | 301 | 0.0 | 0.0 | 0.00 | 0.03 | 0.00 | 15 | 1013.7 |
| 20260505123737 | 9 | 301 | 0.0 | 0.0 | 0.00 | 0.03 | 0.00 | 15 | 1013.7 |
| 20260505122738 | 8 | 300 | 0.0 | 0.0 | 0.00 | 0.03 | 0.00 | 15 | 1013.6 |
| 20260505122237 | 8 | 301 | 0.0 | 0.0 | 0.00 | 0.03 | 0.00 | 15 | 1013.6 |
| 20260505121737 | 8 | 301 | 0.0 | 0.0 | 0.00 | 0.03 | 0.00 | 15 | 1013.7 |
| 20260505121237 | 8 | 300 | 0.0 | 0.0 | 0.00 | 0.03 | 0.00 | 15 | 1013.6 |
| 20260505120736 | 8 | 301 | 0.0 | 0.0 | 0.00 | 0.03 | 0.00 | 15 | 1013.6 |
| 20260505120236 | 8 | 301 | 0.0 | 0.0 | 0.00 | 0.03 | 0.00 | 15 | 1013.6 |
| 20260505115736 | 8 | 300 | 0.0 | 0.0 | 0.00 | 0.03 | 0.00 | 16 | 1013.7 |
| 20260505115236 | 8 | 300 | 0.0 | 0.0 | 0.00 | 0.03 | 0.00 | 16 | 1013.6 |
| 20260505114737 | 8 | 301 | 0.0 | 0.0 | 0.00 | 0.03 | 0.00 | 16 | 1013.6 |
| 20260505114236 | 8 | 301 | 0.0 | 0.0 | 0.00 | 0.03 | 0.00 | 16 | 1013.6 |
| 20260505113236 | 8 | 300 | 0.0 | 0.0 | 0.00 | 0.03 | 0.00 | 16 | 1013.6 |
| 20260505112736 | 8 | 301 | 0.0 | 0.0 | 0.00 | 0.03 | 0.00 | 16 | 1013.7 |
| 20260505112236 | 8 | 301 | 0.0 | 0.0 | 0.00 | 0.03 | 0.00 | 16 | 1013.6 |
| 20260505111736 | 8 | 300 | 0.0 | 0.0 | 0.00 | 0.03 | 0.00 | 16 | 1013.6 |
| 20260505111236 | 8 | 301 | 0.0 | 0.0 | 0.00 | 0.03 | 0.00 | 17 | 1013.6 |
| 20260505110737 | 8 | 301 | 0.0 | 0.0 | 0.00 | 0.03 | 0.00 | 17 | 1013.6 |
| 20260505110236 | 8 | 301 | 0.0 | 0.0 | 0.00 | 0.03 | 0.00 | 17 | 1013.6 |
| 20260505101735 | 10 | 300 | 0.0 | 0.0 | 0.00 | 0.03 | 0.00 | 16 | 1013.6 |
| 20260505101235 | 10 | 301 | 0.0 | 0.0 | 0.00 | 0.03 | 0.00 | 16 | 1013.7 |
| 20260505100735 | 10 | 301 | 0.0 | 0.0 | 0.00 | 0.03 | 0.00 | 16 | 1013.7 |
| 20260505095735 | 9 | 301 | 0.0 | 0.0 | 0.00 | 0.03 | 0.00 | 17 | 1013.8 |
| 20260505094735 | 9 | 301 | 0.0 | 0.0 | 0.00 | 0.03 | 0.00 | 17 | 1013.9 |
| 20260505094235 | 9 | 300 | 0.0 | 0.0 | 0.00 | 0.03 | 0.00 | 17 | 1013.9 |
| 20260505093734 | 9 | 301 | 0.0 | 0.0 | 0.00 | 0.03 | 0.00 | 18 | 1014.0 |
| 20260505093234 | 9 | 301 | 0.0 | 0.0 | 0.00 | 0.03 | 0.00 | 18 | 1014.0 |
| 20260505092734 | 9 | 301 | 0.0 | 0.0 | 0.00 | 0.03 | 0.00 | 18 | 1014.0 |
| 20260505091734 | 10 | 301 | 0.0 | 0.0 | 0.00 | 0.03 | 0.00 | 18 | 1014.2 |
| 20260505091234 | 10 | 301 | 0.0 | 0.0 | 0.00 | 0.03 | 0.00 | 18 | 1014.2 |
| 20260505090735 | 10 | 300 | 0.0 | 0.0 | 0.00 | 0.03 | 0.00 | 18 | 1014.3 |
| 20260505090234 | 10 | 300 | 0.0 | 0.0 | 0.00 | 0.03 | 0.00 | 19 | 1014.3 |
| 20260505085733 | 10 | 301 | 0.0 | 0.0 | 0.00 | 0.03 | 0.00 | 19 | 1014.2 |
| 20260505085234 | 10 | 301 | 0.0 | 0.0 | 0.00 | 0.03 | 0.00 | 19 | 1014.3 |
| 20260505084734 | 10 | 300 | 0.0 | 0.0 | 0.00 | 0.03 | 0.00 | 19 | 1014.4 |
| 20260505084233 | 10 | 301 | 0.0 | 0.0 | 0.00 | 0.03 | 0.00 | 19 | 1014.4 |
| 20260505083734 | 10 | 301 | 0.0 | 0.0 | 0.00 | 0.03 | 0.00 | 19 | 1014.4 |
| 20260505083234 | 10 | 301 | 0.0 | 0.0 | 0.00 | 0.03 | 0.00 | 19 | 1014.5 |
| 20260505082733 | 10 | 300 | 0.0 | 0.0 | 0.00 | 0.03 | 0.00 | 19 | 1014.4 |
| 20260505082233 | 10 | 301 | 0.0 | 0.0 | 0.00 | 0.03 | 0.00 | 19 | 1014.5 |
| 20260505081233 | 10 | 301 | 0.0 | 0.0 | 0.00 | 0.03 | 0.00 | 18 | 1014.6 |
| 20260505080233 | 10 | 300 | 0.0 | 0.0 | 0.00 | 0.03 | 0.00 | 18 | 1014.6 |
| 20260505075733 | 10 | 301 | 0.0 | 0.0 | 0.00 | 0.03 | 0.00 | 18 | 1014.7 |
| 20260505075233 | 10 | 300 | 0.0 | 0.0 | 0.00 | 0.03 | 0.00 | 19 | 1014.7 |
| 20260505074734 | 10 | 301 | 0.0 | 0.0 | 0.00 | 0.03 | 0.00 | 20 | 1014.7 |
| 20260505074233 | 10 | 301 | 0.0 | 0.0 | 0.00 | 0.03 | 0.00 | 20 | 1014.7 |
| 20260505073733 | 10 | 301 | 0.0 | 0.0 | 0.00 | 0.03 | 0.00 | 20 | 1014.8 |
| 20260505073234 | 10 | 300 | 0.0 | 0.0 | 0.00 | 0.03 | 0.00 | 21 | 1014.7 |
| 20260505072733 | 10 | 300 | 0.0 | 0.0 | 0.00 | 0.03 | 0.00 | 21 | 1014.7 |
| 20260505071733 | 10 | 300 | 0.0 | 0.0 | 0.00 | 0.03 | 0.00 | 22 | 1014.6 |
| 20260505071232 | 10 | 301 | 0.0 | 0.0 | 0.00 | 0.03 | 0.00 | 22 | 1014.7 |
| 20260505070732 | 10 | 301 | 0.0 | 0.0 | 0.00 | 0.03 | 0.00 | 23 | 1014.6 |
| 20260505070232 | 10 | 301 | 0.0 | 0.0 | 0.00 | 0.03 | 0.00 | 24 | 1014.5 |
| 20260505065732 | 10 | 300 | 0.0 | 0.0 | 0.00 | 0.03 | 0.03 | 24 | 1014.5 |
| 20260505065232 | 10 | 300 | 0.0 | 0.0 | 0.00 | 0.03 | 0.03 | 25 | 1014.3 |
| 20260505064231 | 10 | 301 | 0.0 | 0.0 | 0.00 | 0.03 | 0.03 | 26 | 1014.4 |
| 20260505063731 | 10 | 301 | 0.0 | 0.0 | 0.00 | 0.03 | 0.03 | 26 | 1014.5 |
| 20260505063231 | 10 | 300 | 0.0 | 0.0 | 0.00 | 0.03 | 0.03 | 28 | 1014.4 |
| 20260505062731 | 10 | 301 | 0.0 | 0.0 | 0.00 | 0.03 | 0.03 | 28 | 1014.3 |
| 20260505062231 | 10 | 301 | 0.0 | 0.0 | 0.00 | 0.03 | 0.03 | 29 | 1014.3 |
| 20260505061731 | 10 | 300 | 0.0 | 0.0 | 0.00 | 0.03 | 0.03 | 29 | 1014.3 |
| 20260505061231 | 10 | 300 | 0.0 | 0.0 | 0.00 | 0.03 | 0.03 | 30 | 1014.3 |
| 20260505060731 | 10 | 301 | 0.0 | 0.0 | 0.00 | 0.03 | 0.03 | 30 | 1014.4 |
| 20260505060231 | 10 | 301 | 0.0 | 0.0 | 0.00 | 0.03 | 0.03 | 31 | 1014.4 |
| 20260505055731 | 10 | 301 | 0.0 | 0.0 | 0.00 | 0.03 | 0.03 | 32 | 1014.4 |
| 20260505055231 | 10 | 301 | 0.0 | 0.0 | 0.00 | 0.03 | 0.03 | 32 | 1014.5 |
| 20260505054731 | 10 | 301 | 0.0 | 0.0 | 0.00 | 0.03 | 0.03 | 33 | 1014.4 |
| 20260505054231 | 10 | 301 | 0.0 | 0.0 | 0.00 | 0.03 | 0.03 | 33 | 1014.4 |
| 20260505053731 | 10 | 300 | 0.0 | 0.0 | 0.00 | 0.03 | 0.03 | 34 | 1014.4 |
| 20260505052231 | 11 | 300 | 0.0 | 0.0 | 0.00 | 0.03 | 0.03 | 37 | 1014.7 |
| 20260505051731 | 11 | 300 | 0.0 | 0.0 | 0.00 | 0.03 | 0.03 | 38 | 1014.7 |
| 20260505051230 | 11 | 301 | 0.0 | 0.0 | 0.00 | 0.03 | 0.03 | 39 | 1014.7 |
| 20260505050730 | 11 | 301 | 0.0 | 0.0 | 0.00 | 0.03 | 0.03 | 39 | 1014.7 |
| 20260505041729 | 13 | 301 | 0.0 | 0.0 | 0.00 | 0.03 | 0.03 | 45 | 1014.5 |
| 20260505041229 | 13 | 301 | 0.0 | 1.6 | 0.00 | 0.03 | 0.03 | 46 | 1014.5 |
| 20260505040729 | 13 | 300 | 0.0 | 4.8 | 0.00 | 0.03 | 0.03 | 46 | 1014.3 |
| 20260505040229 | 13 | 300 | 0.0 | 8.0 | 0.00 | 0.03 | 0.03 | 46 | 1014.3 |
| 20260505035229 | 13 | 301 | 0.0 | 6.4 | 0.00 | 0.03 | 0.03 | 46 | 1014.2 |
| 20260505034729 | 13 | 300 | 0.0 | 9.7 | 0.00 | 0.03 | 0.03 | 47 | 1014.2 |
| 20260505033729 | 13 | 298 | 1.6 | 12.9 | 0.00 | 0.03 | 0.03 | 46 | 1014.1 |
| 20260505033229 | 13 | 311 | 4.8 | 12.9 | 0.00 | 0.03 | 0.03 | 46 | 1014.0 |
| 20260505032729 | 14 | 311 | 6.4 | 11.3 | 0.00 | 0.03 | 0.03 | 46 | 1014.0 |
| 20260505032229 | 14 | 299 | 0.0 | 8.0 | 0.00 | 0.03 | 0.03 | 46 | 1013.8 |
| 20260505031729 | 14 | 301 | 4.8 | 8.0 | 0.00 | 0.03 | 0.03 | 46 | 1013.7 |
| 20260505031229 | 14 | 265 | 0.0 | 6.4 | 0.00 | 0.03 | 0.03 | 46 | 1013.7 |
| 20260505030729 | 14 | 265 | 1.6 | 11.3 | 0.00 | 0.03 | 0.03 | 46 | 1013.6 |
| 20260505025228 | 15 | 280 | 0.0 | 8.0 | 0.00 | 0.03 | 0.03 | 46 | 1013.4 |
| 20260505024729 | 15 | 281 | 0.0 | 8.0 | 0.00 | 0.03 | 0.03 | 46 | 1013.3 |
| 20260505024228 | 15 | 290 | 1.6 | 8.0 | 0.00 | 0.03 | 0.03 | 46 | 1013.2 |
| 20260505023728 | 15 | 290 | 0.0 | 6.4 | 0.00 | 0.03 | 0.03 | 46 | 1013.2 |
| 20260505023228 | 15 | 290 | 0.0 | 11.3 | 0.00 | 0.03 | 0.03 | 46 | 1013.1 |
| 20260505022228 | 15 | 250 | 3.2 | 8.0 | 0.00 | 0.03 | 0.03 | 47 | 1013.2 |
| 20260505021728 | 15 | 250 | 0.0 | 6.4 | 0.00 | 0.03 | 0.03 | 47 | 1013.2 |
| 20260505021228 | 15 | 248 | 0.0 | 9.7 | 0.00 | 0.03 | 0.03 | 47 | 1013.2 |
| 20260505020228 | 16 | 198 | 0.0 | 8.0 | 0.00 | 0.03 | 0.03 | 47 | 1013.2 |
| 20260505015728 | 16 | 277 | 0.0 | 8.0 | 0.00 | 0.03 | 0.03 | 47 | 1013.0 |
| 20260505015228 | 16 | 283 | 0.0 | 22.5 | 0.00 | 0.03 | 0.03 | 46 | 1013.0 |
| 20260505014728 | 16 | 300 | 1.6 | 22.5 | 0.00 | 0.03 | 0.03 | 46 | 1013.1 |
| 20260505014227 | 16 | 253 | 1.6 | 11.3 | 0.00 | 0.03 | 0.03 | 46 | 1013.0 |
| 20260505013727 | 17 | 283 | 0.0 | 17.7 | 0.00 | 0.03 | 0.03 | 46 | 1013.0 |
| 20260505013227 | 17 | 302 | 9.7 | 17.7 | 0.00 | 0.03 | 0.03 | 46 | 1013.1 |
| 20260505012727 | 16 | 325 | 0.0 | 9.7 | 0.00 | 0.03 | 0.03 | 46 | 1013.1 |
| 20260505012227 | 16 | 302 | 0.0 | 9.7 | 0.00 | 0.03 | 0.03 | 46 | 1013.2 |
| 20260505011727 | 16 | 304 | 3.2 | 11.3 | 0.00 | 0.03 | 0.03 | 46 | 1013.2 |
| 20260505011227 | 17 | 303 | 0.0 | 11.3 | 0.00 | 0.03 | 0.03 | 46 | 1013.2 |
| 20260505010227 | 17 | 251 | 0.0 | 14.5 | 0.00 | 0.03 | 0.03 | 46 | 1013.2 |
| 20260505005727 | 17 | 279 | 0.0 | 14.5 | 0.00 | 0.03 | 0.03 | 45 | 1013.2 |
| 20260505005227 | 17 | 304 | 1.6 | 14.5 | 0.00 | 0.03 | 0.03 | 45 | 1013.1 |
| 20260505004726 | 17 | 321 | 3.2 | 14.5 | 0.00 | 0.03 | 0.03 | 45 | 1013.1 |
| 20260505004227 | 17 | 321 | 0.0 | 16.1 | 0.00 | 0.03 | 0.03 | 45 | 1013.1 |
| 20260505003726 | 17 | 304 | 4.8 | 16.1 | 0.00 | 0.03 | 0.03 | 44 | 1013.1 |
| 20260505003226 | 18 | 246 | 3.2 | 9.7 | 0.00 | 0.03 | 0.03 | 44 | 1013.1 |
| 20260505002726 | 18 | 289 | 3.2 | 14.5 | 0.00 | 0.03 | 0.03 | 44 | 1013.0 |
| 20260505002226 | 18 | 303 | 0.0 | 17.7 | 0.00 | 0.03 | 0.03 | 43 | 1013.0 |
| 20260505001726 | 18 | 276 | 4.8 | 17.7 | 0.00 | 0.03 | 0.03 | 42 | 1012.9 |
| 20260505001226 | 18 | 268 | 9.7 | 14.5 | 0.00 | 0.03 | 0.03 | 43 | 1012.9 |
| 20260505000726 | 18 | 276 | 6.4 | 9.7 | 0.00 | 0.03 | 0.03 | 43 | 1012.9 |
| 20260505000226 | 18 | 244 | 1.6 | 11.3 | 0.00 | 0.03 | 0.03 | 43 | 1012.9 |
| 20260504235726 | 18 | 261 | 3.2 | 11.3 | 0.00 | 0.03 | 0.03 | 43 | 1012.9 |
| 20260504235226 | 18 | 260 | 4.8 | 11.3 | 0.00 | 0.03 | 0.03 | 43 | 1012.9 |
| 20260504234226 | 18 | 298 | 3.2 | 14.5 | 0.00 | 0.03 | 0.03 | 43 | 1012.9 |
| 20260504233726 | 18 | 310 | 0.0 | 14.5 | 0.00 | 0.03 | 0.03 | 43 | 1013.0 |
| 20260504233225 | 18 | 251 | 11.3 | 14.5 | 0.03 | 0.03 | 0.03 | 43 | 1012.9 |
| 20260504232725 | 17 | 300 | 3.2 | 14.5 | 0.03 | 0.03 | 0.03 | 42 | 1013.0 |
| 20260504232225 | 17 | 250 | 0.0 | 11.3 | 0.03 | 0.03 | 0.03 | 42 | 1013.0 |
| 20260504231725 | 17 | 248 | 0.0 | 12.9 | 0.03 | 0.03 | 0.03 | 42 | 1013.1 |
| 20260504230726 | 18 | 217 | 1.6 | 8.0 | 0.03 | 0.03 | 0.03 | 42 | 1013.1 |
| 20260504230225 | 18 | 140 | 6.4 | 8.0 | 0.03 | 0.03 | 0.03 | 41 | 1013.2 |
| 20260504225725 | 18 | 198 | 0.0 | 6.4 | 0.03 | 0.03 | 0.03 | 41 | 1013.2 |
| 20260504225225 | 18 | 187 | 0.0 | 8.0 | 0.03 | 0.03 | 0.03 | 41 | 1013.3 |
| 20260504224725 | 17 | 261 | 1.6 | 8.0 | 0.03 | 0.03 | 0.03 | 41 | 1013.3 |
| 20260504224226 | 17 | 217 | 0.0 | 8.0 | 0.03 | 0.03 | 0.03 | 40 | 1013.3 |
| 20260504223224 | 17 | 217 | 0.0 | 8.0 | 0.00 | 0.00 | 0.00 | 41 | 1013.4 |
| 20260504222725 | 17 | 215 | 0.0 | 8.0 | 0.00 | 0.00 | 0.00 | 42 | 1013.6 |
| 20260504222224 | 18 | 213 | 0.0 | 4.8 | 0.00 | 0.00 | 0.00 | 42 | 1013.6 |
| 20260504221724 | 18 | 225 | 0.0 | 11.3 | 0.00 | 0.00 | 0.00 | 42 | 1013.8 |
| 20260504221225 | 18 | 226 | 0.0 | 11.3 | 0.00 | 0.00 | 0.00 | 43 | 1013.8 |
| 20260504220224 | 18 | 281 | 0.0 | 8.0 | 0.00 | 0.00 | 0.00 | 43 | 1013.9 |
| 20260504215725 | 19 | 281 | 3.2 | 8.0 | 0.00 | 0.00 | 0.00 | 44 | 1013.9 |
| 20260504215224 | 19 | 244 | 6.4 | 9.7 | 0.00 | 0.00 | 0.00 | 43 | 1013.9 |
| 20260504214724 | 18 | 175 | 0.0 | 9.7 | 0.00 | 0.00 | 0.00 | 43 | 1013.9 |
| 20260504214224 | 18 | 227 | 0.0 | 3.2 | 0.00 | 0.00 | 0.00 | 43 | 1013.8 |
| 20260504213724 | 18 | 233 | 0.0 | 3.2 | 0.00 | 0.00 | 0.00 | 44 | 1014.0 |
| 20260504213223 | 18 | 260 | 0.0 | 3.2 | 0.00 | 0.00 | 0.00 | 44 | 1014.1 |
| 20260504212724 | 18 | 260 | 0.0 | 6.4 | 0.00 | 0.00 | 0.00 | 44 | 1014.1 |
| 20260504212223 | 18 | 260 | 1.6 | 6.4 | 0.00 | 0.00 | 0.00 | 44 | 1014.1 |
| 20260504211724 | 19 | 303 | 3.2 | 14.5 | 0.00 | 0.00 | 0.00 | 45 | 1014.0 |
| 20260504210223 | 19 | 321 | 0.0 | 8.0 | 0.00 | 0.00 | 0.00 | 47 | 1014.2 |
| 20260504205723 | 20 | 271 | 4.8 | 8.0 | 0.00 | 0.00 | 0.00 | 46 | 1014.2 |
| 20260504204723 | 20 | 310 | 0.0 | 12.9 | 0.00 | 0.00 | 0.00 | 46 | 1014.1 |
| 20260504204223 | 20 | 292 | 4.8 | 9.7 | 0.00 | 0.00 | 0.00 | 47 | 1014.1 |
| 20260504203723 | 20 | 291 | 0.0 | 11.3 | 0.00 | 0.00 | 0.00 | 48 | 1014.0 |
| 20260504203223 | 20 | 232 | 0.0 | 11.3 | 0.00 | 0.00 | 0.00 | 46 | 1014.0 |
| 20260504202723 | 20 | 237 | 3.2 | 11.3 | 0.00 | 0.00 | 0.00 | 46 | 1013.9 |
| 20260504202223 | 21 | 217 | 0.0 | 11.3 | 0.00 | 0.00 | 0.00 | 46 | 1013.9 |
| 20260504201723 | 21 | 175 | 0.0 | 9.7 | 0.00 | 0.00 | 0.00 | 46 | 1013.8 |
| 20260504200723 | 22 | 209 | 4.8 | 17.7 | 0.00 | 0.00 | 0.00 | 44 | 1013.8 |
| 20260504200222 | 22 | 307 | 0.0 | 17.7 | 0.00 | 0.00 | 0.00 | 42 | 1013.8 |
| 20260504195722 | 22 | 165 | 0.0 | 17.7 | 0.00 | 0.00 | 0.00 | 43 | 1013.8 |
| 20260504195222 | 22 | 285 | 3.2 | 17.7 | 0.00 | 0.00 | 0.00 | 42 | 1013.7 |
| 20260504194223 | 21 | 169 | 4.8 | 11.3 | 0.00 | 0.00 | 0.00 | 44 | 1014.0 |
| 20260504193722 | 21 | 193 | 3.2 | 9.7 | 0.00 | 0.00 | 0.00 | 43 | 1014.0 |
| 20260504193222 | 21 | 207 | 4.8 | 9.7 | 0.00 | 0.00 | 0.00 | 44 | 1014.0 |
| 20260504192722 | 21 | 217 | 0.0 | 6.4 | 0.00 | 0.00 | 0.00 | 43 | 1014.1 |
| 20260504192222 | 21 | 267 | 0.0 | 8.0 | 0.00 | 0.00 | 0.00 | 42 | 1014.0 |
| 20260504191222 | 21 | 313 | 4.8 | 14.5 | 0.00 | 0.00 | 0.00 | 41 | 1014.0 |
| 20260504190722 | 20 | 240 | 1.6 | 9.7 | 0.00 | 0.00 | 0.00 | 42 | 1014.0 |
| 20260504185721 | 21 | 310 | 0.0 | 14.5 | 0.00 | 0.00 | 0.00 | 40 | 1014.0 |
| 20260504185222 | 21 | 310 | 4.8 | 14.5 | 0.00 | 0.00 | 0.00 | 41 | 1014.0 |
| 20260504183722 | 20 | 202 | 1.6 | 6.4 | 0.00 | 0.00 | 0.00 | 40 | 1014.3 |
| 20260504182751 | 20 | 200 | 1.6 | 8.0 | 0.00 | 0.00 | 0.00 | 40 | 1014.3 |
| 20260504181751 | 20 | 158 | 0.0 | 9.7 | 0.00 | 0.00 | 0.00 | 40 | 1014.4 |
| 20260504181251 | 20 | 156 | 0.0 | 9.7 | 0.00 | 0.00 | 0.00 | 41 | 1014.4 |
| 20260504180751 | 20 | 125 | 4.8 | 11.3 | 0.00 | 0.00 | 0.00 | 39 | 1014.4 |
| 20260504175751 | 20 | 319 | 3.2 | 8.0 | 0.00 | 0.00 | 0.00 | 39 | 1014.4 |
| 20260504175250 | 20 | 319 | 3.2 | 8.0 | 0.00 | 0.00 | 0.00 | 38 | 1014.4 |
| 20260504174750 | 19 | 326 | 0.0 | 9.7 | 0.00 | 0.00 | 0.00 | 37 | 1014.6 |
| 20260504173751 | 18 | 304 | 1.6 | 6.4 | 0.00 | 0.00 | 0.00 | 37 | 1014.5 |
| 20260504173251 | 18 | 304 | 3.2 | 6.4 | 0.00 | 0.00 | 0.00 | 37 | 1014.5 |
| 20260504171750 | 17 | 306 | 0.0 | 6.4 | 0.00 | 0.00 | 0.00 | 35 | 1014.4 |
| 20260504171250 | 17 | 306 | 0.0 | 6.4 | 0.00 | 0.00 | 0.00 | 35 | 1014.4 |
| 20260504170750 | 17 | 306 | 0.0 | 3.2 | 0.00 | 0.00 | 0.00 | 34 | 1014.5 |
| 20260504170250 | 16 | 306 | 0.0 | 0.0 | 0.00 | 0.00 | 0.00 | 34 | 1014.5 |
| 20260504160250 | 12 | 308 | 0.0 | 0.0 | 0.00 | 0.00 | 0.00 | 23 | 1014.6 |
| 20260504150748 | 10 | 299 | 0.0 | 0.0 | 0.00 | 0.00 | 0.00 | 14 | 1014.6 |
| 20260504150248 | 10 | 299 | 0.0 | 0.0 | 0.00 | 0.00 | 0.00 | 15 | 1014.6 |